TimeEDT,TemperatureF,Dew PointF,Humidity,Sea Level PressureIn,VisibilityMPH,Wind Direction,Wind SpeedMPH,Gust SpeedMPH,PrecipitationIn,Events,Conditions,WindDirDegrees,DateUTC
12:53 AM,73.0,69.1,87,29.86,10.0,East,5.8,-,N/A,,Clear,80,2012-10-17 04:53:00
1:53 AM,72.0,69.1,91,29.86,10.0,ENE,4.6,-,N/A,,Clear,70,2012-10-17 05:53:00
2:53 AM,72.0,69.1,91,29.86,9.0,Calm,Calm,-,N/A,,Clear,0,2012-10-17 06:53:00
3:53 AM,71.1,69.1,93,29.85,8.0,ENE,3.5,-,N/A,,Clear,70,2012-10-17 07:53:00
4:53 AM,71.1,69.1,93,29.86,8.0,Calm,Calm,-,N/A,,Clear,0,2012-10-17 08:53:00
5:53 AM,71.1,69.1,93,29.86,9.0,East,3.5,-,N/A,,Clear,100,2012-10-17 09:53:00
6:53 AM,72.0,69.1,91,29.86,9.0,Calm,Calm,-,N/A,,Clear,0,2012-10-17 10:53:00
7:39 AM,71.6,69.8,94,29.87,9.0,Calm,Calm,-,N/A,,Partly Cloudy,0,2012-10-17 11:39:00
7:53 AM,73.0,70.0,90,29.88,8.0,Calm,Calm,-,N/A,,Clear,0,2012-10-17 11:53:00
8:53 AM,75.0,72.0,90,29.89,8.0,Calm,Calm,-,N/A,,Clear,0,2012-10-17 12:53:00
9:53 AM,78.1,72.0,81,29.91,10.0,Calm,Calm,-,N/A,,Clear,0,2012-10-17 13:53:00
10:53 AM,80.1,73.0,79,29.91,10.0,Calm,Calm,-,N/A,,Clear,0,2012-10-17 14:53:00
11:53 AM,82.9,73.0,72,29.91,10.0,WSW,4.6,-,N/A,,Partly Cloudy,240,2012-10-17 15:53:00
12:53 PM,84.9,71.1,63,29.90,10.0,WSW,8.1,-,N/A,,Scattered Clouds,240,2012-10-17 16:53:00
1:53 PM,84.9,69.1,59,29.88,10.0,West,13.8,-,N/A,,Clear,270,2012-10-17 17:53:00
2:53 PM,84.0,68.0,58,29.86,10.0,West,9.2,-,N/A,,Scattered Clouds,260,2012-10-17 18:53:00
3:53 PM,82.0,69.1,65,29.86,10.0,West,6.9,-,N/A,,Mostly Cloudy,260,2012-10-17 19:53:00
4:53 PM,82.0,70.0,67,29.86,10.0,NW,4.6,-,N/A,,Mostly Cloudy,310,2012-10-17 20:53:00
5:53 PM,81.0,72.0,74,29.84,10.0,Calm,Calm,-,N/A,,Partly Cloudy,0,2012-10-17 21:53:00
6:53 PM,79.0,73.0,82,29.84,10.0,ENE,3.5,-,N/A,,Partly Cloudy,60,2012-10-17 22:53:00
7:53 PM,77.0,71.1,82,29.86,10.0,East,4.6,-,N/A,,Mostly Cloudy,100,2012-10-17 23:53:00
8:53 PM,75.0,71.1,87,29.88,10.0,East,4.6,-,N/A,,Clear,90,2012-10-18 00:53:00
9:53 PM,75.0,70.0,84,29.89,10.0,ENE,8.1,-,N/A,,Mostly Cloudy,70,2012-10-18 01:53:00
10:53 PM,73.0,69.1,87,29.90,10.0,East,5.8,-,N/A,,Partly Cloudy,100,2012-10-18 02:53:00
11:53 PM,72.0,69.1,91,29.90,10.0,Calm,Calm,-,N/A,,Clear,0,2012-10-18 03:53:00